Snowfall_Accumulation
0.0 0.0 0.0 0.0 0.0 0.0 0.0 0.0 0.0 0.0 0.0 0.0 0.0 0.0 0.0 0.0 0.0 0.0 0.0 0.0 0.0 0.0 0.0 0.0 0.0 0.0 0.0 0.0 0.0 0.0 0.0 0.0 0.0 0.0 0.0 0.0 0.0 0.0 0.0 0.0 0.0 0.0 0.0
0.0 0.1 0.2 0.1 0.2 0.1 0.1 0.1 0.0 0.0 0.0 0.0 0.0 0.0 0.0 0.0 0.0 0.0 0.0 0.0 0.0 0.0 0.0 0.0 0.0 0.0 0.0 0.0 0.0 0.0 0.0 0.0 0.0 0.0 0.0 0.0 0.0 0.0 0.0 0.0 0.0 0.0 0.0
0.1 0.0 2.0 0.7 0.5 0.4 0.6 0.1 0.4 0.3 0.0 0.0 0.0 0.0 0.0 0.0 0.0 0.0 0.0 0.0 0.0 0.0 0.0 0.0 0.0 0.0 0.0 0.0 0.0 0.0 0.0 0.0 0.0 0.0 0.0 0.0 0.0 0.0 0.0 0.0 0.0 0.0 0.0
0.2 0.1 1.2 3.1 1.8 1.7 0.3 0.6 0.5 0.4 0.1 0.1 0.0 0.0 0.0 0.0 0.0 0.0 0.0 0.0 0.0 0.0 0.0 0.0 0.0 0.0 0.0 0.0 0.0 0.0 0.0 0.0 0.0 0.0 0.0 0.0 0.0 0.0 0.0 0.0 0.0 0.0 0.0
1.0 0.5 0.6 2.6 2.2 2.7 2.4 1.3 1.2 1.1 0.7 0.6 0.0 0.0 0.0 0.0 0.0 0.0 0.0 0.0 0.0 0.0 0.0 0.0 0.0 0.0 0.0 0.0 0.0 0.0 0.0 0.0 0.0 0.0 0.0 0.0 0.0 0.0 0.0 0.0 0.0 0.0 0.0
1.0 0.6 0.2 0.6 2.5 2.8 3.0 1.2 2.4 1.3 1.7 1.0 0.6 0.1 0.0 0.0 0.0 0.0 0.0 0.0 0.0 0.0 0.0 0.0 0.0 0.0 0.0 0.0 0.0 0.0 0.0 0.0 0.0 0.0 0.0 0.0 0.0 0.0 0.0 0.0 0.0 0.0 0.0
1.5 1.1 0.6 1.0 2.1 2.6 3.3 3.9 2.2 2.8 3.1 2.5 0.5 0.8 0.0 0.0 0.0 0.0 0.0 0.0 0.0 0.0 0.0 0.0 0.0 0.0 0.0 0.0 0.0 0.0 0.0 0.0 0.0 0.0 0.0 0.0 0.0 0.0 0.0 0.0 0.0 0.0 0.0
1.8 1.7 1.2 1.1 2.1 3.0 3.3 4.1 5.4 4.7 2.6 4.0 2.2 0.8 0.3 0.0 0.0 0.0 0.0 0.0 0.0 0.0 0.0 0.0 0.0 0.0 0.0 0.0 0.0 0.0 0.0 0.0 0.0 0.0 0.0 0.0 0.0 0.0 0.0 0.0 0.0 0.0 0.0
2.7 2.2 1.6 1.6 2.0 2.2 3.3 3.9 5.9 6.4 5.9 3.4 3.6 1.7 0.3 0.2 0.0 0.0 0.0 0.0 0.0 0.0 0.0 0.0 0.0 0.0 0.0 0.0 0.0 0.0 0.0 0.0 0.0 0.0 0.0 0.0 0.0 0.0 0.0 0.0 0.0 0.0 0.0
3.3 2.3 1.6 1.8 2.0 3.2 2.7 2.6 4.2 6.6 7.9 7.2 4.2 2.7 1.5 0.1 0.0 0.0 0.0 0.0 0.0 0.0 0.0 0.0 0.0 0.0 0.0 0.0 0.0 0.0 0.0 0.0 0.0 0.0 0.0 0.0 0.0 0.0 0.0 0.0 0.0 0.0 0.0
2.6 4.0 2.4 2.1 2.4 1.9 3.5 3.6 2.9 5.7 6.6 7.5 6.5 4.2 2.1 0.9 0.0 0.0 0.0 0.0 0.0 0.0 0.0 0.0 0.0 0.0 0.0 0.0 0.0 0.0 0.0 0.0 0.0 0.0 0.0 0.0 0.0 0.0 0.0 0.0 0.0 0.0 0.0
3.6 3.2 3.6 2.8 1.9 1.9 1.9 3.6 3.1 4.3 6.9 6.8 7.9 7.3 4.1 1.5 0.5 0.1 0.0 0.0 0.0 0.0 0.0 0.0 0.0 0.0 0.0 0.0 0.0 0.0 0.0 0.0 0.0 0.0 0.0 0.0 0.0 0.0 0.0 0.0 0.0 0.0 0.0
2.8 3.0 3.1 2.7 2.7 2.5 2.4 2.5 3.3 3.3 4.6 7.2 6.6 7.8 7.5 4.9 2.4 0.8 0.0 0.0 0.0 0.0 0.0 0.0 0.0 0.0 0.0 0.0 0.0 0.0 0.0 0.0 0.0 0.0 0.0 0.0 0.0 0.0 0.0 0.0 0.0 0.0 0.0
3.4 3.2 3.1 5.1 3.1 3.4 3.4 2.7 2.3 3.2 3.3 4.0 8.6 9.6 9.7 7.6 5.9 2.3 0.4 0.0 0.0 0.0 0.0 0.0 0.0 0.0 0.0 0.0 0.0 0.0 0.0 0.0 0.0 0.0 0.0 0.0 0.0 0.0 0.0 0.0 0.0 0.0 0.0
2.1 2.5 3.0 3.2 5.3 3.1 3.4 3.3 2.9 3.1 3.8 3.2 3.9 6.4 9.8 7.7 5.8 3.5 1.7 0.0 0.0 0.0 0.0 0.0 0.0 0.0 0.0 0.0 0.0 0.0 0.0 0.0 0.0 0.0 0.0 0.0 nan nan nan 0.0 0.0 0.0 0.0
1.5 1.4 1.7 1.7 2.2 4.1 2.9 3.5 4.2 4.1 3.7 4.3 3.6 3.7 4.0 8.8 7.3 5.4 3.9 0.3 0.0 0.0 0.0 0.0 0.0 0.0 0.0 nan nan 0.0 0.0 0.0 0.0 0.0 0.0 0.0 0.0 0.0 nan nan nan nan 0.0
1.5 1.2 1.1 1.1 0.9 1.1 2.0 2.6 2.9 4.0 3.9 4.0 5.1 2.9 3.7 2.6 6.3 7.7 5.7 3.0 0.3 0.0 0.0 0.0 0.0 0.0 0.0 nan nan nan 0.0 0.0 0.0 0.0 0.0 0.0 0.0 nan 0.0 nan nan nan nan
1.2 0.9 0.7 0.4 0.1 0.0 0.2 1.2 1.4 2.0 3.8 4.0 3.9 5.8 4.1 3.8 3.1 4.5 6.3 6.2 2.7 0.8 0.3 0.0 0.0 0.0 0.0 nan nan nan 0.0 0.0 0.0 0.0 0.0 0.0 0.0 0.0 0.0 0.0 0.0 0.0 0.0
1.5 1.4 0.6 0.2 0.0 0.0 0.0 0.1 0.4 0.9 1.3 2.7 3.3 3.8 5.5 5.6 4.2 3.4 3.4 4.8 4.4 2.2 2.1 1.8 1.8 0.0 0.0 nan nan 0.0 0.0 0.0 0.0 0.0 0.0 0.0 0.0 nan nan 0.0 0.0 0.0 0.0
0.1 0.2 0.1 0.1 0.0 0.0 0.0 0.0 0.0 0.1 0.3 0.8 1.5 1.9 3.5 5.2 6.2 5.1 4.7 3.8 3.4 3.8 1.4 2.2 3.1 nan 1.3 nan nan nan 0.0 0.0 0.0 0.0 0.0 nan 0.0 nan nan 0.0 0.0 0.0 0.0
0.0 0.0 0.0 0.0 0.0 0.0 0.0 0.0 0.0 0.0 0.0 0.1 0.2 0.5 1.0 3.0 5.1 5.5 5.5 4.6 4.0 2.7 2.9 2.7 2.3 2.1 1.4 0.5 nan nan 0.0 0.0 0.0 0.0 0.0 0.0 nan nan nan nan 0.0 0.0 0.0
0.0 0.0 0.0 0.0 0.0 0.0 0.0 0.0 0.0 0.0 0.0 0.0 0.1 0.1 0.3 0.7 1.9 3.9 4.8 5.5 5.0 4.6 3.9 3.4 2.2 2.2 2.3 nan nan nan nan nan 0.0 0.0 0.0 0.0 nan nan nan nan nan nan nan
0.0 0.0 0.0 0.0 0.0 0.0 0.0 0.0 0.0 0.0 0.0 0.0 0.0 0.0 0.1 0.1 0.4 1.7 3.2 4.1 5.1 5.4 5.8 5.2 4.6 4.0 1.9 1.6 nan nan nan nan 0.4 0.0 0.0 nan nan nan nan nan nan nan 0.0
0.4 0.2 0.1 0.1 0.1 0.0 0.0 0.0 0.0 0.0 0.0 0.0 0.0 0.0 0.0 0.1 0.1 0.4 1.5 2.3 3.5 4.3 4.9 4.9 4.8 4.4 3.5 2.9 2.0 1.9 1.6 nan 1.2 nan 0.1 nan 0.0 nan nan 0.0 0.0 0.0 0.0
1.1 0.7 0.6 0.4 0.2 0.1 0.0 0.0 0.0 0.0 0.0 0.0 0.0 0.0 0.0 0.0 0.1 0.1 0.6 1.7 2.1 3.9 4.1 4.2 4.0 4.4 3.2 4.1 2.9 3.3 2.8 2.2 1.6 nan 1.0 0.9 0.7 0.8 1.1 0.4 0.2 0.0 0.0
2.5 1.7 1.4 1.0 0.9 0.7 0.3 0.1 0.1 0.1 0.1 0.0 0.0 0.0 0.0 0.0 0.0 0.0 0.1 nan nan nan nan nan 2.3 1.2 nan nan nan nan nan nan nan 3.2 3.2 3.2 3.0 3.3 3.0 2.7 3.7 3.9 3.2
Water_Equivalent
0.00 0.00 0.00 0.00 0.00 0.00 0.00 0.00 0.00 0.00 0.00 0.00 0.00 0.00 0.00 0.00 0.00 0.00 0.00 0.00 0.00 0.00 0.00 0.00 0.00 0.00 0.00 0.00 0.00 0.00 0.00 0.00 0.00 0.00 0.00 0.00 0.00 0.00 0.00 0.00 0.00 0.00 0.00
0.00 0.02 0.05 0.01 0.04 0.01 0.01 0.03 0.01 0.00 0.00 0.00 0.00 0.00 0.00 0.00 0.00 0.00 0.00 0.00 0.00 0.00 0.00 0.00 0.00 0.00 0.00 0.00 0.00 0.00 0.00 0.00 0.00 0.00 0.00 0.00 0.00 0.00 0.00 0.00 0.00 0.00 0.00
0.01 0.00 0.37 0.11 0.10 0.06 0.10 0.02 0.09 0.05 0.00 0.00 0.00 0.00 0.00 0.00 0.00 0.00 0.00 0.00 0.00 0.00 0.00 0.00 0.00 0.00 0.00 0.00 0.00 0.00 0.00 0.00 0.00 0.00 0.00 0.00 0.00 0.00 0.00 0.00 0.00 0.00 0.00
0.02 0.01 0.20 0.61 0.28 0.27 0.06 0.11 0.10 0.09 0.02 0.02 0.00 0.00 0.00 0.00 0.00 0.00 0.00 0.00 0.00 0.00 0.00 0.00 0.00 0.00 0.00 0.00 0.00 0.00 0.00 0.00 0.00 0.00 0.00 0.00 0.00 0.00 0.00 0.00 0.00 0.00 0.00
0.11 0.06 0.09 0.46 0.35 0.52 0.37 0.21 0.26 0.19 0.14 0.10 0.00 0.00 0.00 0.00 0.00 0.00 0.00 0.00 0.00 0.00 0.00 0.00 0.00 0.00 0.00 0.00 0.00 0.00 0.00 0.00 0.00 0.00 0.00 0.00 0.00 0.00 0.00 0.00 0.00 0.00 0.00
0.11 0.09 0.04 0.10 0.44 0.47 0.46 0.18 0.41 0.20 0.27 0.18 0.11 0.01 0.00 0.00 0.00 0.00 0.00 0.00 0.00 0.00 0.00 0.00 0.00 0.00 0.00 0.00 0.00 0.00 0.00 0.00 0.00 0.00 0.00 0.00 0.00 0.00 0.00 0.00 0.00 0.00 0.00
0.17 0.14 0.09 0.14 0.32 0.38 0.45 0.63 0.35 0.46 0.49 0.39 0.08 0.13 0.01 0.00 0.00 0.00 0.00 0.00 0.00 0.00 0.00 0.00 0.00 0.00 0.00 0.00 0.00 0.00 0.00 0.00 0.00 0.00 0.00 0.00 0.00 0.00 0.00 0.00 0.00 0.00 0.00
0.21 0.21 0.16 0.14 0.28 0.42 0.44 0.57 0.78 0.71 0.37 0.60 0.34 0.13 0.05 0.00 0.00 0.00 0.00 0.00 0.00 0.00 0.00 0.00 0.00 0.00 0.00 0.00 0.00 0.00 0.00 0.00 0.00 0.00 0.00 0.00 0.00 0.00 0.00 0.00 0.00 0.00 0.00
0.30 0.26 0.21 0.23 0.27 0.30 0.46 0.50 0.90 0.96 1.01 0.47 0.54 0.26 0.05 0.03 0.00 0.00 0.00 0.00 0.00 0.00 0.00 0.00 0.00 0.00 0.00 0.00 0.00 0.00 0.00 0.00 0.00 0.00 0.00 0.00 0.00 0.00 0.00 0.00 0.00 0.00 0.00
0.36 0.29 0.22 0.24 0.27 0.46 0.38 0.39 0.66 0.99 1.11 1.23 0.62 0.43 0.24 0.02 0.01 0.00 0.00 0.00 0.00 0.00 0.00 0.00 0.00 0.00 0.00 0.00 0.00 0.00 0.00 0.00 0.00 0.00 0.00 0.00 0.00 0.00 0.00 0.00 0.00 0.00 0.00
0.28 0.48 0.32 0.33 0.32 0.26 0.48 0.54 0.45 0.89 0.94 1.07 1.07 0.64 0.33 0.14 0.01 0.00 0.00 0.00 0.00 0.00 0.00 0.00 0.00 0.00 0.00 0.00 0.00 0.00 0.00 0.00 0.00 0.00 0.00 0.00 0.00 0.00 0.00 0.00 0.00 0.00 0.00
0.38 0.36 0.45 0.42 0.34 0.27 0.25 0.44 0.45 0.67 1.11 1.01 1.18 1.15 0.66 0.26 0.09 0.01 0.00 0.00 0.00 0.00 0.00 0.00 0.00 0.00 0.00 0.00 0.00 0.00 0.00 0.00 0.00 0.00 0.00 0.00 0.00 0.00 0.00 0.00 0.00 0.00 0.00
0.29 0.31 0.37 0.33 0.43 0.44 0.38 0.31 0.42 0.45 0.76 1.19 0.97 1.15 1.14 0.77 0.38 0.13 0.00 0.00 0.00 0.00 0.00 0.00 0.00 0.00 0.00 0.00 0.00 0.00 0.00 0.00 0.00 0.00 0.00 0.00 0.00 0.00 0.00 0.00 0.00 0.00 0.00
0.33 0.32 0.31 0.58 0.37 0.57 0.55 0.46 0.32 0.47 0.50 0.62 1.32 1.46 1.46 1.16 0.94 0.36 0.07 0.00 0.00 0.00 0.00 0.00 0.00 0.00 0.00 0.00 0.00 0.00 0.00 0.00 0.00 0.00 0.00 0.00 0.00 0.00 0.00 0.00 0.00 0.00 0.00
0.19 0.24 0.28 0.31 0.61 0.37 0.58 0.56 0.55 0.46 0.65 0.59 0.60 0.88 1.55 1.17 0.86 0.58 0.27 0.01 0.00 0.00 0.00 0.00 0.00 0.00 0.00 0.00 0.00 0.00 0.00 0.00 0.00 0.00 0.00 0.00 nan nan nan 0.00 0.00 0.00 0.00
0.14 0.13 0.16 0.17 0.22 0.48 0.32 0.59 0.71 0.68 0.57 0.75 0.65 0.69 0.59 1.45 1.16 0.78 0.66 0.07 0.00 0.00 0.00 0.00 0.00 0.00 0.00 nan nan 0.00 0.00 0.00 0.00 0.00 0.00 0.00 0.00 0.00 nan nan nan nan 0.00
0.13 0.10 0.09 0.10 0.08 0.12 0.24 0.28 0.43 0.65 0.60 0.56 0.85 0.47 0.70 0.42 0.98 1.29 0.89 0.51 0.06 0.00 0.00 0.00 0.00 0.00 0.00 nan nan nan 0.00 0.00 0.00 0.00 0.00 0.00 0.00 nan 0.00 nan nan nan nan
0.10 0.09 0.06 0.04 0.01 0.01 0.02 0.14 0.16 0.25 0.55 0.54 0.54 0.85 0.66 0.68 0.61 0.75 1.04 1.11 0.47 0.16 0.05 0.01 0.00 0.00 0.00 nan nan nan 0.00 0.00 0.00 0.00 0.00 0.00 0.00 0.00 0.00 0.00 0.00 0.00 0.00
0.13 0.12 0.06 0.02 0.00 0.00 0.00 0.01 0.04 0.09 0.14 0.32 0.41 0.48 0.73 0.86 0.67 0.68 0.63 0.86 0.92 0.40 0.37 0.32 0.30 0.00 0.00 nan nan 0.00 0.00 0.00 0.00 0.00 0.00 0.00 0.00 nan nan 0.00 0.00 0.00 0.00
0.01 0.02 0.01 0.01 0.01 0.00 0.00 0.00 0.00 0.02 0.04 0.09 0.17 0.23 0.42 0.66 0.85 0.75 0.82 0.83 0.75 0.85 0.29 0.39 0.51 nan 0.22 nan nan nan 0.00 0.00 0.00 0.00 0.00 nan 0.00 nan nan 0.00 0.00 0.00 0.00
0.00 0.00 0.00 0.00 0.00 0.00 0.00 0.00 0.00 0.00 0.00 0.01 0.03 0.06 0.13 0.37 0.60 0.72 0.80 0.77 0.86 0.73 0.74 0.59 0.46 0.37 0.26 0.11 nan nan 0.00 0.00 0.00 0.00 0.00 0.00 nan nan nan nan 0.00 0.00 0.00
0.00 0.00 0.00 0.00 0.00 0.00 0.00 0.00 0.00 0.00 0.00 0.00 0.01 0.02 0.04 0.08 0.22 0.45 0.59 0.74 0.73 0.79 0.83 0.81 0.58 0.55 0.49 nan nan nan nan nan 0.00 0.00 0.00 0.00 nan nan nan nan nan nan nan
0.01 0.00 0.00 0.00 0.00 0.00 0.00 0.00 0.00 0.00 0.00 0.00 0.00 0.01 0.01 0.02 0.05 0.19 0.36 0.47 0.65 0.68 0.77 0.77 0.75 0.74 0.50 0.47 nan nan nan nan 0.10 0.00 0.00 nan nan nan nan nan nan nan 0.00
0.05 0.02 0.01 0.01 0.01 0.00 0.00 0.00 0.00 0.00 0.00 0.00 0.00 0.00 0.00 0.01 0.02 0.05 0.18 0.26 0.40 0.50 0.58 0.60 0.59 0.61 0.53 0.56 0.55 0.59 0.46 nan 0.27 nan 0.02 nan 0.00 nan nan 0.00 0.00 0.00 0.00
0.17 0.10 0.08 0.06 0.03 0.01 0.00 0.00 0.01 0.00 0.00 0.00 0.00 0.00 0.00 0.00 0.01 0.02 0.07 0.19 0.26 0.48 0.48 0.50 0.48 0.52 0.40 0.58 0.63 0.76 0.73 0.58 0.44 nan 0.22 0.17 0.11 0.14 0.20 0.07 0.03 0.00 0.00
0.32 0.23 0.18 0.13 0.13 0.10 0.06 0.03 0.03 0.02 0.01 0.00 0.00 0.00 0.00 0.00 0.00 0.00 0.01 nan nan nan nan nan 0.30 0.16 nan nan nan nan nan nan nan 0.55 0.54 0.56 0.52 0.53 0.47 0.39 0.56 0.61 0.55
SL_Ratio
nan 5.0 nan nan nan nan nan nan 5.0 nan nan nan nan nan nan nan nan nan nan nan nan nan nan nan nan nan nan nan nan nan nan nan nan nan nan nan nan nan nan nan nan nan nan
nan 5.2 4.1 4.3 5.0 4.8 5.0 4.4 5.0 3.8 nan nan nan nan nan nan nan nan nan nan nan nan nan nan nan nan nan nan nan nan nan nan nan nan nan nan nan nan nan nan nan nan nan
8.1 5.0 5.4 6.3 5.0 5.8 5.8 5.7 4.8 5.2 5.0 nan nan nan nan nan nan nan nan nan nan nan nan nan nan nan nan nan nan nan nan nan nan nan nan nan nan nan nan nan nan nan nan
7.6 6.8 6.0 5.1 6.4 6.4 5.5 5.5 4.8 4.8 4.8 4.4 5.0 nan nan nan nan nan nan nan nan nan nan nan nan nan nan nan nan nan nan nan nan nan nan nan nan nan nan nan nan nan nan
9.2 8.0 7.2 5.6 6.1 5.1 6.7 6.3 4.7 6.0 4.9 5.8 5.8 5.0 nan nan nan nan nan nan nan nan nan nan nan nan nan nan nan nan nan nan nan nan nan nan nan nan nan nan nan nan nan
8.5 6.8 6.0 5.6 5.8 6.0 6.6 6.4 5.7 6.5 6.5 5.4 5.9 5.8 10.0 nan nan nan nan nan nan nan nan nan nan nan nan nan nan nan nan nan nan nan nan nan nan nan nan nan nan nan nan
8.7 7.8 7.3 7.2 6.6 6.9 7.3 6.1 6.4 6.1 6.4 6.4 5.9 6.1 5.6 nan nan nan nan nan nan nan nan nan nan nan nan nan nan nan nan nan nan nan nan nan nan nan nan nan nan nan nan
8.8 8.1 7.7 8.0 7.3 7.0 7.5 7.2 7.0 6.5 7.0 6.7 6.4 6.1 5.7 3.3 nan nan nan nan nan nan nan nan nan nan nan nan nan nan nan nan nan nan nan nan nan nan nan nan nan nan nan
8.9 8.5 8.0 6.9 7.6 7.3 7.2 7.7 6.6 6.7 5.9 7.3 6.7 6.3 5.9 5.8 3.8 nan nan nan nan nan nan nan nan nan nan nan nan nan nan nan nan nan nan nan nan nan nan nan nan nan nan
9.1 8.2 7.4 7.4 7.4 6.9 7.0 6.6 6.4 6.6 7.1 5.9 6.7 6.2 6.2 5.4 5.6 nan nan nan nan nan nan nan nan nan nan nan nan nan nan nan nan nan nan nan nan nan nan nan nan nan nan
9.2 8.5 7.3 6.3 7.3 7.6 7.2 6.7 6.3 6.4 6.9 7.1 6.1 6.5 6.3 6.3 5.6 nan nan nan nan nan nan nan nan nan nan nan nan nan nan nan nan nan nan nan nan nan nan nan nan nan nan
9.5 8.8 8.0 6.8 5.8 7.1 7.8 8.1 6.9 6.4 6.2 6.7 6.7 6.3 6.2 5.7 6.1 5.7 3.3 nan nan nan nan nan nan nan nan nan nan nan nan nan nan nan nan nan nan nan nan nan nan nan nan
9.8 9.6 8.4 8.3 6.2 5.7 6.3 8.0 7.8 7.3 6.1 6.0 6.8 6.7 6.5 6.3 6.5 6.2 5.0 nan nan nan nan nan nan nan nan nan nan nan nan nan nan nan nan nan nan nan nan nan nan nan nan
10.3 10.1 10.0 8.8 8.5 6.0 6.2 5.9 7.3 6.9 6.7 6.5 6.5 6.6 6.7 6.5 6.3 6.3 5.8 nan nan nan nan nan nan nan nan nan nan nan nan nan nan nan nan nan nan nan nan nan nan nan nan
10.7 10.6 10.6 10.3 8.6 8.3 5.8 5.8 5.3 6.7 5.9 5.4 6.6 7.3 6.3 6.5 6.7 6.1 6.3 5.0 nan nan nan nan nan nan nan nan nan nan nan nan nan nan nan nan nan nan nan nan nan nan nan
11.3 10.8 10.5 10.3 10.0 8.5 8.9 6.0 6.0 6.0 6.4 5.7 5.6 5.4 6.8 6.1 6.3 6.8 6.0 5.2 nan nan nan nan nan nan nan nan nan nan nan nan nan nan nan nan nan nan nan nan nan nan nan
11.3 11.6 11.3 10.8 10.4 9.0 8.1 9.0 6.8 6.1 6.6 7.1 6.1 6.1 5.3 6.2 6.4 6.0 6.4 6.0 5.2 nan nan nan nan nan nan nan nan nan nan nan nan nan nan nan nan nan nan nan nan nan nan
12.1 10.7 11.4 11.2 8.5 7.5 7.9 8.3 8.6 7.8 7.0 7.5 7.3 6.9 6.2 5.5 5.1 6.0 6.1 5.6 5.6 5.2 5.4 3.4 5.0 nan nan nan nan nan nan nan nan nan nan nan nan nan nan nan nan nan nan
11.9 11.7 10.1 9.2 8.3 nan 7.5 7.3 8.4 9.2 9.3 8.5 8.3 7.8 7.6 6.6 6.3 5.0 5.4 5.6 4.8 5.6 5.7 5.7 5.9 6.0 nan nan nan nan nan nan nan nan nan nan nan nan nan nan nan nan nan
8.0 9.2 8.8 7.8 8.3 nan nan nan 7.5 8.7 9.9 9.6 8.8 8.1 8.3 7.9 7.3 6.8 5.7 4.6 4.5 4.5 4.7 5.8 6.0 nan 5.6 nan nan nan nan nan nan nan nan nan nan nan nan nan nan nan nan
nan nan nan nan nan nan nan nan nan 10.0 8.3 6.9 6.8 7.2 8.2 8.3 8.4 7.6 6.9 5.9 4.7 3.8 3.8 4.7 5.0 5.6 5.3 5.1 nan nan nan nan nan nan nan nan nan nan nan nan nan nan nan
nan nan 5.0 nan nan 7.5 nan nan nan nan nan nan 6.9 7.3 7.1 8.1 8.4 8.6 8.1 7.4 6.9 5.9 4.6 4.2 3.7 4.0 4.7 nan nan nan nan nan nan nan nan nan nan nan nan nan nan nan nan
8.1 5.0 7.9 5.0 nan 5.0 5.0 8.6 nan nan nan nan nan 7.5 7.1 7.1 7.8 8.9 8.9 8.7 7.9 7.8 7.5 6.7 6.1 5.4 3.8 3.5 nan nan nan nan 4.1 nan nan nan nan nan nan nan nan nan nan
9.0 8.3 8.4 7.8 6.4 6.7 6.3 5.0 nan nan nan nan nan nan 10.0 7.8 7.4 7.8 8.8 9.0 8.8 8.6 8.4 8.3 8.1 7.2 6.5 5.2 3.6 3.3 3.5 nan 4.4 nan 5.5 nan nan nan nan nan nan nan nan
6.8 6.7 7.0 6.9 6.7 5.5 6.0 5.0 5.6 8.0 12.5 nan nan nan nan nan 9.1 7.8 9.0 8.9 8.3 8.2 8.5 8.5 8.2 8.4 8.1 7.1 4.6 4.4 3.8 3.8 3.6 nan 4.5 5.6 6.1 5.9 5.8 5.7 5.6 5.0 nan
8.0 7.5 7.7 7.5 7.2 6.4 5.7 4.7 4.3 5.6 9.4 9.0 15.0 8.3 8.3 7.5 10.0 8.3 8.9 nan nan nan nan nan 7.7 7.4 nan nan nan nan nan nan nan 5.7 6.0 5.7 5.8 6.1 6.4 6.8 6.6 6.5 5.9